This demonstration page uses our WeatherBlox Daily Observations layout. Learn more.

Left ArrowRight Arrow

40.97296, -117.73568

Hourly Observations for May 29, 2022

Temp ( °F °C ) Dew Point ( °F °C ) Humidity (%) Winds ( mph kmh ) Pressure ( in mb ) Visibility ( mi km ) Precip ( " mm )
12:56 am 00:56 Clear 46 7.8 40 4.4 79 79 W 12 19 29.70 1006 10 16 0.00 0.00
1:56 am 01:56 Clear 45 7.2 37 2.8 74 74 W 16 26 29.67 1005 10 16 0.00 0.00
2:56 am 02:56 Mostly Cloudy 44 6.7 37 2.8 76 76 WNW 8 13 29.70 1006 10 16 0.00 0.00
3:56 am 03:56 Cloudy 45 7.2 35 1.7 68 68 WNW 13 20 29.70 1006 10 16 0.00 0.00
4:56 am 04:56 Cloudy 44 6.7 32 0 63 63 W 8 13 29.72 1007 10 16 0.00 0.00
5:56 am 05:56 Cloudy 42 5.6 33 0.6 71 71 W 13 20 29.75 1008 10 16 0.00 0.00
6:56 am 06:56 Cloudy 44 6.7 35 1.7 71 71 W 8 13 29.77 1008 10 16 0.00 0.00
7:56 am 07:56 Mostly Cloudy 46 7.8 34 1.1 63 63 W 17 28 29.78 1009 10 16 0.00 0.00
8:56 am 08:56 Cloudy 47 8.3 33 0.6 59 59 W 17 28 29.80 1009 10 16 0.00 0.00
9:56 am 09:56 Cloudy 48 8.9 32 0 54 54 WNW 12 19 29.82 1010 10 16 0.00 0.00
10:56 am 10:56 Cloudy 49 9.4 33 0.6 55 55 W 17 28 29.84 1011 10 16 0.00 0.00
11:56 am 11:56 Cloudy 52 11.1 33 0.6 49 49 WNW 14 22 29.85 1011 10 16 0.00 0.00
12:56 pm 12:56 Cloudy 51 10.6 32 0 48 48 NW 16 26 29.86 1011 10 16 0.00 0.00
1:56 pm 13:56 Cloudy 47 8.3 35 1.7 63 63 E 5 7 29.88 1012 10 16 0.00 0.00
2:56 pm 14:56 Cloudy 52 11.1 34 1.1 50 50 N 13 20 29.87 1011 10 16 0.00 0.00
3:56 pm 15:56 Cloudy 54 12.2 33 0.6 45 45 NNW 13 20 29.85 1011 10 16 0.00 0.00
4:56 pm 16:56 Cloudy 54 12.2 31 -0.6 42 42 NW 13 20 29.86 1011 10 16 0.00 0.00
5:56 pm 17:56 Mostly Cloudy 55 12.8 29 -1.7 37 37 NNW 10 17 29.85 1011 10 16 0.00 0.00
6:56 pm 18:56 Mostly Cloudy 54 12.2 28 -2.2 37 37 NNW 10 17 29.85 1011 10 16 0.00 0.00
7:56 pm 19:56 Cloudy 53 11.7 27 -2.8 37 37 NNW 7 11 29.85 1011 10 16 0.00 0.00
8:56 pm 20:56 Mostly Cloudy 47 8.3 29 -1.7 50 50 N 7 11 29.87 1012 10 16 0.00 0.00
9:56 pm 21:56 Partly Cloudy 44 6.7 30 -1.1 58 58 NNW 5 7 29.89 1012 10 16 0.00 0.00
10:56 pm 22:56 Cloudy 44 6.7 31 -0.6 60 60 W 5 7 29.90 1012 10 16 0.00 0.00
11:56 pm 23:56 Cloudy 44 6.7 32 0 63 63 W 6 9 29.89 1012 10 16 0.00 0.00

Powered by AerisWeather